Weather in Zhangala

Kazakhstan     49°12′56″N   50°18′10″E
temp.,
°C
wind,
m/s
gust,
m/s
humid.,
%
clouds,
%
prec.,
mm/h
press.,
hPa
HPBL,
m
18 january, tue
tue1823:00−4ssw6118987 0.0 1017490
02:00−6s614925 0.0 1016296
05:00−6s6149198 0.0 1016281
08:00−5s71591100 0.0 1015323
11:00−4s71590100 0.0 1016427
14:00−1s81386100 0.0 1016626
17:00−1s71285100 0.0 1017407
20:00−3sse61290100 0.0 1018297
19 january, wed
wed1923:00−3sse61389100 0.0 1018316
02:00−3sse61490100 0.0 1019348
05:00−4sse51192100 0.0 1020247
08:00−5sse51094100 0.0 1020178
11:00−4se51193100 0.0 1021245
14:00−1sse5991100 0.0 1021345
17:00−1se4892100 0.0 1021317
20:00−2se5996100 0.0 1022243
20 january, thu
thu2023:00−4ese4995100 0.0 1022199
02:00
05:00−4ese5896100 0.3 1022244
08:00−5e4896100 0.4 1022274
11:00
14:00−3ese61094100 0.7 1022396
17:00−3e5896100 1.1 1021457
20:00−4e599692 0.4 1022329
21 january, fri
fri2123:00−4e489692 0.6 1022231
02:00−6e4796100 0.2 1023158
05:00−6e3695100 0.3 1023169
08:00−8e3492100 0.0 102470
11:00−8e3688100 0.0 1025141
14:00−5ese358177 0.0 1025234
17:00−6e35875 0.0 1025102
20:00−10ese349080 0.0 102647
22 january, sat
sat2223:00−11ese3589100 0.0 102658
02:00−10se3588100 0.0 102671
05:00−12se33906 0.0 102735
08:00−12ese349032 0.0 102741
11:00−10ese468676 0.0 1027122
14:00−6ese577988 0.0 1027257
17:00−6ese4687100 0.0 1027163
20:00−9ese489197 0.0 1028101